Weather History for KMIW - September, 2012

Change the Weather History Date:

Sunday, September 30, 2012

  Actual Average Record
Temperature  
Mean Temperature 61 °F 56 °F  
Max Temperature 81 °F 69 °F 89 °F (2002)
Min Temperature 41 °F 44 °F 28 °F (2003)
Degree Days  
Heating Degree Days 4 9  
Month to date heating degree days 156 137  
Since 1 July heating degree days 178 160  
Cooling Degree Days 0 1  
Month to date cooling degree days 58 62  
Year to date cooling degree days 1074 718  
Growing Degree Days 11 (Base 50)    
Moisture  
Dew Point 40 °F    
Average Humidity 54    
Maximum Humidity 83    
Minimum Humidity 25    
Precipitation  
Precipitation 0.00 in 0.10 in 0.30 in (2007)
Month to date precipitation 1.81 3.37  
Sea Level Pressure  
Sea Level Pressure 29.95 in    
Wind  
Wind Speed 5 mph (NNE)    
Max Wind Speed 7 mph    
Max Gust Speed 7 mph    
Visibility 10 miles    
Events      
T = Trace of Precipitation, MM = Missing Value Source: NWS Daily Summary

Daily Weather History Graph

Daily Weather History Graph

Search for Another Location

Airport or City:

Trip Planner

Search our weather history database for the weather conditions in past years. The results will help you decide how hot, cold, wet, or windy it might be!

Date:

Astronomy

Sep. 30, 2012 Rise Set
Actual Time 7:08 AM CDT 6:54 PM CDT
Civil Twilight 6:40 AM CDT 7:21 PM CDT
Nautical Twilight 6:07 AM CDT 7:54 PM CDT
Astronomical Twilight 5:34 AM CDT 8:27 PM CDT
Moon 6:56 PM CDT (9/30) 7:40 AM CDT (9/30)
Length of Visible Light 12h 41m
Length of Day
11h 45m
Full, 100% of the Moon is Illuminated
Sep 30
Full
Oct 8
Last Quarter
Oct 15
New
Oct 21
First Quarter
Oct 29
Full

Hourly Weather History & Observations

Time (CDT) Temp. Windchill Dew Point Humidity Pressure Visibility Wind Dir Wind Speed Gust Speed Precip Events Conditions
12:53 AM 52.0 °F - 39.0 °F 61% 29.99 in 9.0 mi NNW 3.5 mph - N/A   Clear
1:53 AM 46.9 °F - 39.0 °F 74% 30.00 in 10.0 mi WNW 4.6 mph - N/A   Clear
2:53 AM 45.0 °F 41.8 °F 39.0 °F 80% 29.99 in 10.0 mi WNW 5.8 mph - N/A   Clear
3:53 AM 45.0 °F 42.6 °F 39.0 °F 80% 29.99 in 10.0 mi NW 4.6 mph - N/A   Clear
4:53 AM 45.0 °F 43.5 °F 39.0 °F 80% 29.98 in 10.0 mi NNW 3.5 mph - N/A   Clear
5:54 AM 43.0 °F - 37.9 °F 82% 29.97 in 9.0 mi Calm Calm - N/A   Unknown
6:53 AM 42.1 °F - 37.0 °F 82% 29.98 in 10.0 mi Calm Calm - N/A   Clear
7:53 AM 46.0 °F - 41.0 °F 83% 29.99 in 8.0 mi Calm Calm - N/A   Clear
8:53 AM 53.1 °F - 43.0 °F 69% 29.99 in 6.0 mi Calm Calm - N/A   Haze
9:53 AM 64.0 °F - 44.1 °F 48% 29.98 in 10.0 mi Calm Calm - N/A   Clear
10:53 AM 73.0 °F - 42.1 °F 33% 29.97 in 10.0 mi NNE 4.6 mph - N/A   Clear
11:53 AM 77.0 °F - 43.0 °F 30% 29.96 in 10.0 mi NNE 4.6 mph - N/A   Clear
12:53 PM 79.0 °F - 43.0 °F 28% 29.94 in 10.0 mi NE 6.9 mph - N/A   Clear
1:53 PM 80.1 °F - 43.0 °F 27% 29.92 in 10.0 mi NNE 10.4 mph - N/A   Clear
2:53 PM 79.0 °F - 43.0 °F 28% 29.91 in 10.0 mi NE 10.4 mph - N/A   Clear
3:53 PM 79.0 °F - 42.1 °F 27% 29.89 in 10.0 mi NNE 11.5 mph 18.4 mph N/A   Clear
4:53 PM 78.1 °F - 39.9 °F 25% 29.89 in 10.0 mi NE 10.4 mph - N/A   Clear
5:53 PM 73.9 °F - 39.0 °F 28% 29.89 in 10.0 mi NE 8.1 mph - N/A   Clear
6:53 PM 66.9 °F - 37.0 °F 33% 29.89 in 10.0 mi NE 5.8 mph - N/A   Clear
7:53 PM 62.1 °F - 37.9 °F 41% 29.90 in 10.0 mi East 4.6 mph - N/A   Clear
8:53 PM 61.0 °F - 39.0 °F 44% 29.92 in 10.0 mi East 4.6 mph - N/A   Clear
10:53 PM 57.9 °F - 41.0 °F 53% 29.91 in 10.0 mi East 4.6 mph - N/A   Clear
11:53 PM 55.9 °F - 42.1 °F 60% 29.91 in 10.0 mi East 5.8 mph - N/A   Clear